www.pogodaiklimat.ru

Погода и климат >> Архив погоды >> Норвегия >> Флурё аэропорт


ПОГОДА во Флурё аэропорту

  • Прогноз погоды во Флурё аэропорту
  • Монитор погоды во Флурё аэропорту

АРХИВ ПОГОДЫ во Флурё аэропорту

Время (UTC), дата Ветер
(напр.,м/с)
 
Видим.   Явления Облачность Т
(С)
Тd
(С)
f
(%)
Тe
(С)
Тes
(С)
Комфортность P
(гПа)
Po
(гПа)
Тmin
(С)
Tmax
(С)
R
(мм)
R24
(мм)
S
(см)
19 13.08 З 2
{5}
н/о н/о +9.6 +6.9 83 +8 +8 1008.6 970.8
20 13.08 Ю 1
{3}
н/о н/о +9.1 +6.9 86 +8 +8 1008.7 970.8
21 13.08 З 2
{3}
н/о н/о +9.2 +6.8 85 +7 +7 1008.9 971.1
22 13.08 СЗ 1
{2}
н/о н/о +9.1 +6.7 85 +8 +8 1008.8 971.0
23 13.08 штиль 0
{2}
н/о н/о +8.9 +6.7 86 +8 +8 1008.9 971.0
00 14.08 ЮЗ 1
{5}
н/о н/о +8.8 +6.9 88 +8 +8 1008.9 970.9
01 14.08 СЗ 1
{1}
н/о н/о +8.5 +7.1 91 +8 +8 1008.9 970.9
02 14.08 С 1
{1}
н/о н/о +8.1 +6.9 92 +7 +7 1008.9 970.9
03 14.08 СЗ 1
{2}
н/о н/о +7.8 +6.9 94 +7 +7 1008.8 970.7
04 14.08 СЗ 1
{2}
н/о н/о +7.8 +6.9 94 +7 +7 1008.6 970.5
05 14.08 СЗ 1
{2}
н/о н/о +8.2 +7.3 94 +7 +7 1008.5 970.5
06 14.08 Ю 2
{4}
н/о н/о +8.9 +7.4 90 +7 +7 1008.5 970.6 +7.5 +10.3
07 14.08 ЮЗ 1
{3}
н/о н/о +9.6 +7.6 87 +9 +9 1008.4 970.6
08 14.08 ЮЗ 2
{3}
н/о н/о +11.3 +7.2 76 +10 +10 1008.1 970.5
09 14.08 Ю 3
{4}
н/о н/о +11.3 +7.6 78 +10 +10 1008.2 970.6
10 14.08 З 2
{6}
н/о н/о +10.5 +8.4 87 +9 +9 1008.5 970.8
11 14.08 З 2
{4}
н/о н/о +10.7 +8.8 88 +9 +9 1008.5 970.8
12 14.08 ЮЗ 2
{6}
н/о н/о +11.1 +8.3 83 +10 +10 1008.6 971.0
13 14.08 З 3
{8}
н/о н/о +10.5 +7.7 83 +8 +8 1008.9 971.2
14 14.08 ЮЗ 2
{5}
н/о н/о +13.4 +10.2 81 +13 +13 1008.3 971.0
15 14.08 ЮЗ 3
{9}
н/о н/о +9.2 +7.8 91 +7 +7 1009.5 971.6
16 14.08 ЮВ 1
{3}
н/о н/о +10.2 +7.6 84 +10 +10 1009.0 971.3
17 14.08 ЮЗ 3
{4}
н/о н/о +9.8 +8.6 92 +7 +7 1009.3 971.5
18 14.08 Ю 1
{9}
н/о н/о +9.5 +8.3 92 +9 +9 1009.4 971.5 +8.9 +13.5
19 14.08 штиль 0
{3}
н/о н/о +9.4 +7.0 85 +9 +9 1009.5 971.6
20 14.08 С 1
{2}
н/о н/о +8.9 +8.0 94 +8 +8 1009.7 971.8
21 14.08 СЗ 2
{3}
н/о н/о +8.1 +6.9 92 +6 +6 1009.8 971.8
22 14.08 С 2
{2}
н/о н/о +7.6 +6.4 92 +5 +5 1010.0 971.8
23 14.08 С 2
{2}
н/о н/о +7.3 +6.3 93 +5 +5 1010.0 971.8
00 15.08 С 3
{3}
н/о н/о +7.1 +5.7 91 +4 +4 1009.9 971.7
01 15.08 С 2
{3}
н/о н/о +6.3 +5.4 94 +4 +4 1009.7 971.4
02 15.08 С 2
{2}
н/о н/о +6.0 +5.0 93 +3 +3 1009.4 971.1
03 15.08 С 2
{2}
н/о н/о +6.0 +5.0 93 +3 +3 1009.1 970.8
04 15.08 С 1
{3}
н/о н/о +5.8 +4.8 93 +5 +5 1008.7 970.4
05 15.08 С 1
{3}
н/о н/о +6.7 +5.3 91 +6 +6 1008.4 970.2
06 15.08 Ю 1
{3}
н/о н/о +7.7 +6.2 90 +7 +7 1007.9 969.9 +5.6 +9.6
07 15.08 Ю 1
{2}
н/о н/о +9.3 +7.4 88 +9 +9 1007.1 969.3
08 15.08 СВ 2
{4}
н/о н/о +12.3 +7.6 73 +11 +11 1006.1 968.8
09 15.08 В 1
{3}
н/о н/о +13.7 +7.3 65 +14 +14 1005.6 968.4
10 15.08 ЮВ 3
{5}
н/о н/о +15.5 +5.7 52 +15 +15 1004.7 967.8
11 15.08 ЮВ 2
{6}
н/о н/о +15.7 +4.1 46 +16 +16 1004.5 967.6
12 15.08 Ю 4
{6}
н/о н/о +17.3 +4.3 42 +17 +17 1004.1 967.4
13 15.08 Ю 3
{9}
н/о н/о +17.7 +3.6 39 +18 +18 1003.5 966.9
14 15.08 Ю 5
{7}
н/о н/о +18.0 +3.5 38 +18 +18 1003.2 966.6
15 15.08 Ю 4
{8}
н/о н/о +17.7 +3.6 39 +17 +17 1003.0 966.4
16 15.08 Ю 2
{6}
н/о н/о +18.0 +3.9 39 +19 +19 1002.7 966.1
17 15.08 Ю 2
{4}
н/о н/о +16.9 +4.6 44 +17 +17 1002.5 965.8
18 15.08 С 1
{9}
н/о н/о +16.5 +6.6 52 +17 +17 1002.0 965.3 +7.8 +19.3
19 15.08 штиль 0
{6}
н/о н/о +15.1 +9.5 69 +15 +15 1002.0 965.2
20 15.08 ЮЗ 1
{3}
н/о н/о +14.4 +7.0 61 +15 +15 1002.2 965.3
21 15.08 ЮЗ 2
{5}
н/о н/о +13.0 +8.7 75 +12 +12 1003.0 965.9
22 15.08 З 2
{9}
н/о н/о +11.3 +10.4 94 +10 +10 1004.1 966.7
23 15.08 В 2
{2}
н/о н/о +11.2 +10.4 95 +10 +10 1004.0 966.6
00 16.08 З 2
{9}
н/о н/о +11.1 +10.5 96 +10 +10 1004.4 967.0
01 16.08 З 2
{8}
н/о н/о +10.0 +9.4 96 +8 +8 1005.3 967.7
02 16.08 ЮЗ 2
{5}
н/о н/о +9.8 +9.2 96 +8 +8 1006.1 968.4
03 16.08 З 3
{4}
н/о н/о +9.5 +8.6 94 +7 +7 1006.6 968.9
04 16.08 З 1
{4}
н/о н/о +9.3 +8.2 93 +9 +9 1006.7 969.0
05 16.08 З 1
{3}
н/о н/о +9.4 +8.5 94 +9 +9 1007.2 969.4
06 16.08 ЮЗ 1
{8}
н/о н/о +9.8 +8.4 91 +9 +9 1007.4 969.6 +9.2 +16.5
07 16.08 Ю 1
{2}
н/о н/о +10.9 +8.3 84 +11 +11 1007.3 969.7
08 16.08 Ю 3
{4}
н/о н/о +11.1 +7.6 79 +9 +9 1007.5 969.9
09 16.08 Ю 4
{6}
н/о н/о +13.5 +7.5 67 +12 +12 1007.2 969.9
10 16.08 З 3
{6}
н/о н/о +13.0 +7.7 70 +12 +12 1007.2 969.9
11 16.08 Ю 4
{6}
н/о н/о +13.6 +6.0 60 +12 +12 1007.1 969.9
12 16.08 Ю 3
{6}
н/о н/о +13.8 +6.4 61 +13 +13 1006.8 969.6
13 16.08 Ю 4
{6}
н/о н/о +14.1 +6.7 61 +13 +13 1006.3 969.1
14 16.08 Ю 3
{5}
н/о н/о +15.2 +7.5 60 +15 +15 1005.7 968.7
15 16.08 ЮЗ 2
{4}
н/о н/о +13.8 +6.9 63 +13 +13 1005.4 968.3
16 16.08 ЮЗ 2
{4}
н/о н/о +12.8 +8.7 76 +12 +12 1005.3 968.1
17 16.08 З 1
{3}
н/о н/о +11.8 +9.2 84 +12 +12 1005.2 967.8
18 16.08 СЗ 1
{6}
н/о н/о +11.3 +9.6 89 +11 +11 1004.9 967.4 +9.8 +15.3
19 16.08 В 1
{2}
н/о н/о +11.0 +10.1 94 +11 +11 1004.4 966.9
20 16.08 С 1
{3}
н/о н/о +10.5 +9.4 93 +10 +10 1004.4 966.9
21 16.08 СВ 2
{3}
н/о н/о +10.6 +9.4 92 +9 +9 1003.6 966.1
22 16.08 СВ 2
{4}
н/о н/о +10.8 +8.9 88 +9 +9 1003.0 965.6
23 16.08 С 2
{3}
н/о н/о +10.5 +9.1 91 +9 +9 1002.2 964.7
00 17.08 С 2
{4}
н/о н/о +10.6 +9.0 90 +9 +9 1001.3 963.8
01 17.08 СЗ 2
{3}
н/о н/о +11.3 +8.0 80 +10 +10 1000.5 963.2
02 17.08 З 1
{4}
н/о н/о +12.2 +8.1 76 +12 +12 999.2 962.1
03 17.08 Ю 2
{10}
н/о н/о +12.6 +8.5 76 +12 +12 998.1 961.1
04 17.08 С 3
{4}
н/о н/о +11.8 +9.0 83 +10 +10 997.4 960.3
05 17.08 СВ 3
{5}
н/о н/о +11.8 +9.4 85 +10 +10 996.9 959.8
06 17.08 СВ 4
{10}
н/о н/о +11.8 +9.4 85 +10 +10 995.8 958.7 +10.3 +13.3
07 17.08 С 3
{6}
н/о н/о +11.9 +9.8 87 +10 +10 995.1 958.1
08 17.08 С 2
{3}
н/о н/о +12.2 +10.3 88 +11 +11 994.2 957.3
09 17.08 С 2
{3}
н/о н/о +12.8 +10.7 87 +12 +12 993.5 956.6
10 17.08 З 1
{5}
н/о н/о +13.7 +11.6 87 +14 +14 993.0 956.3
11 17.08 ЮВ 1
{3}
н/о н/о +13.0 +12.2 95 +13 +13 992.9 956.1
12 17.08 Ю 1
{6}
н/о н/о +13.5 +12.6 94 +14 +14 992.6 955.9
13 17.08 З 1
{3}
н/о н/о +13.8 +12.9 94 +14 +14 992.3 955.6
14 17.08 Ю 3
{5}
н/о н/о +16.0 +14.2 89 +16 +16 992.6 956.2
15 17.08 Ю 3
{6}
н/о н/о +15.4 +12.9 85 +15 +15 992.8 956.3
16 17.08 Ю 3
{10}
н/о н/о +15.4 +12.4 82 +15 +15 993.4 956.9
17 17.08 Ю 5
{11}
н/о н/о +13.7 +11.4 86 +12 +12 994.1 957.3
18 17.08 Ю 4
{11}
н/о н/о +13.0 +11.2 89 +11 +11 994.7 957.8 +11.7 +16.6
19 17.08 ЮЗ 3
{5}
н/о н/о +12.6 +11.2 91 +11 +11 994.7 957.8
20 17.08 Ю 2
{3}
н/о н/о +12.2 +11.1 93 +11 +11 994.8 957.9
21 17.08 Ю 2
{7}
н/о н/о +11.4 +10.3 93 +10 +10 996.3 959.2
22 17.08 Ю 3
{6}
н/о н/о +11.1 +9.5 90 +9 +9 997.2 960.1
23 17.08 Ю 5
{7}
н/о н/о +10.7 +8.6 87 +8 +8 998.0 960.8
00 18.08 Ю 2
{7}
н/о н/о +10.5 +8.4 87 +9 +9 998.5 961.2
01 18.08 СЗ 1
{4}
н/о н/о +10.7 +8.1 84 +10 +10 998.4 961.1
02 18.08 Ю 3
{4}
н/о н/о +10.4 +7.3 81 +8 +8 998.5 961.2
03 18.08 Ю 2
{6}
н/о н/о +10.8 +7.1 78 +10 +10 998.2 960.9
04 18.08 Ю 3
{5}
н/о н/о +10.2 +7.5 83 +8 +8 998.6 961.2
05 18.08 Ю 3
{8}
н/о н/о +11.3 +6.9 74 +10 +10 998.3 961.1
06 18.08 Ю 6
{9}
н/о н/о +11.4 +7.5 77 +8 +8 998.1 960.9 +9.8 +13.0
07 18.08 Ю 5
{8}
н/о н/о +12.7 +7.4 70 +11 +11 997.8 960.8
08 18.08 Ю 6
{10}
н/о н/о +14.3 +7.1 62 +13 +13 997.4 960.6
09 18.08 Ю 6
{12}
н/о н/о +14.0 +6.9 62 +12 +12 997.8 961.0
10 18.08 Ю 4
{10}
н/о н/о +13.7 +7.0 64 +12 +12 998.1 961.2
11 18.08 Ю 4
{10}
н/о н/о +12.8 +8.5 75 +11 +11 998.5 961.5
12 18.08 СЗ 1
{12}
н/о н/о +12.4 +9.6 83 +12 +12 998.3 961.2
13 18.08 ЮЗ 1
{2}
н/о н/о +14.0 +9.7 75 +14 +14 997.7 960.8
14 18.08 ЮЗ 2
{13}
н/о н/о +10.6 +9.0 90 +9 +9 999.0 961.7
15 18.08 С 1
{3}
н/о н/о +13.8 +9.9 77 +14 +14 997.9 961.0
16 18.08 ЮВ 1
{3}
н/о н/о +14.2 +10.4 78 +15 +15 997.6 960.7
17 18.08 Ю 2
{7}
н/о н/о +13.9 +9.2 73 +13 +13 997.1 960.2
18 18.08 С 2
{13}
н/о н/о +12.0 +10.3 89 +11 +11 997.0 959.9 +10.5 +15.0
19 18.08 СЗ 2
{5}
н/о н/о +11.8 +10.4 91 +11 +11 997.0 959.9
20 18.08 С 1
{2}
н/о н/о +11.1 +9.7 91 +11 +11 997.0 959.9
21 18.08 С 1
{3}
н/о н/о +10.5 +8.9 90 +10 +10 997.2 959.9
22 18.08 З 1
{3}
н/о н/о +10.6 +8.5 87 +10 +10 997.2 959.9
23 18.08
{3}
н/о н/о +11.1 +8.2 82 997.0 959.8
00 19.08 С 2
{5}
н/о н/о +11.0 +8.8 86 +10 +10 996.5 959.4
01 19.08
{4}
н/о н/о +11.8 +7.9 77 996.4 959.3
02 19.08 Ю 3
{7}
н/о н/о +12.1 +7.0 71 +11 +11 995.9 958.9
03 19.08 ЮВ 1
{5}
н/о н/о +12.4 +6.7 68 +13 +13 995.3 958.3
04 19.08 Ю 2
{6}
н/о н/о +12.6 +6.9 68 +12 +12 995.1 958.1
05 19.08 Ю 4
{7}
н/о н/о +11.6 +8.1 79 +9 +9 995.3 958.2
06 19.08 Ю 3
{7}
н/о н/о +12.5 +7.2 70 +11 +11 995.1 958.2 +10.2 +13.0
07 19.08 Ю 3
{9}
н/о н/о +10.4 +8.7 89 +8 +8 996.3 959.0
08 19.08 Ю 2
{5}
н/о н/о +10.0 +8.9 93 +8 +8 997.0 959.7
09 19.08 Ю 4
{9}
н/о н/о +11.8 +9.9 88 +10 +10 996.9 959.8
10 19.08 Ю 4
{8}
н/о н/о +11.7 +9.3 85 +9 +9 997.5 960.4
11 19.08 Ю 4
{7}
н/о н/о +12.4 +9.4 82 +10 +10 997.7 960.7
12 19.08 Ю 4
{10}
н/о н/о +12.0 +10.1 88 +10 +10 998.7 961.6
13 19.08 Ю 4
{7}
н/о н/о +12.1 +10.8 92 +10 +10 999.7 962.5
14 19.08 Ю 4
{6}
н/о н/о +11.7 +10.6 93 +9 +9 1000.4 963.2
15 19.08 Ю 3
{5}
н/о н/о +12.2 +10.9 92 +11 +11 1001.0 963.8
16 19.08 Ю 2
{5}
н/о н/о +11.3 +10.4 94 +10 +10 1001.7 964.4
17 19.08 Ю 3
{6}
н/о н/о +11.5 +10.4 93 +10 +10 1001.7 964.4
18 19.08 Ю 3
{7}
н/о н/о +11.0 +10.2 95 +9 +9 1002.1 964.8 +10.0 +13.0
19 19.08 Ю 4
{7}
н/о н/о +11.2 +10.3 94 +9 +9 1002.5 965.1
20 19.08 Ю 4
{9}
н/о н/о +11.2 +10.1 93 +9 +9 1003.2 965.8
21 19.08 ЮЗ 3
{6}
н/о н/о +11.0 +10.2 95 +9 +9 1003.8 966.3
22 19.08 ЮЗ 3
{7}
н/о н/о +10.8 +10.2 96 +9 +9 1004.1 966.7
23 19.08 Ю 2
{6}
н/о н/о +10.7 +9.9 95 +9 +9 1004.6 967.1
00 20.08 Ю 3
{9}
н/о н/о +10.7 +9.9 95 +9 +9 1004.8 967.3
01 20.08 Ю 2
{7}
н/о н/о +10.7 +9.9 95 +9 +9 1005.1 967.5
02 20.08 Ю 3
{6}
н/о н/о +10.5 +9.4 93 +8 +8 1005.4 967.8
03 20.08 ЮЗ 3
{5}
н/о н/о +10.6 +9.8 95 +8 +8 1005.5 967.9
04 20.08 Ю 2
{5}
н/о н/о +10.5 +9.7 95 +9 +9 1006.1 968.5
05 20.08 Ю 1
{5}
н/о н/о +10.4 +9.5 94 +10 +10 1006.5 968.8
06 20.08 ЮЗ 1
{7}
н/о н/о +10.5 +9.9 96 +10 +10 1006.9 969.3 +10.3 +11.3
07 20.08 ЮЗ 1
{2}
н/о н/о +10.4 +9.8 96 +10 +10 1007.3 969.6
08 20.08 З 1
{3}
н/о н/о +10.7 +10.1 96 +10 +10 1007.8 970.1
09 20.08 ЮЗ 2
{3}
н/о н/о +11.3 +10.7 96 +10 +10 1008.4 970.8
10 20.08 ЮЗ 2
{4}
н/о н/о +11.4 +10.6 95 +10 +10 1009.0 971.4
11 20.08 ЮЗ 2
{3}
н/о н/о +11.9 +10.8 93 +11 +11 1009.5 972.0
12 20.08 З 3
{6}
н/о н/о +11.1 +10.3 95 +9 +9 1010.6 972.9
13 20.08 З 4
{6}
н/о н/о +11.0 +10.1 94 +8 +8 1011.6 973.9
14 20.08 ЮЗ 3
{7}
н/о н/о +11.2 +10.0 92 +9 +9 1012.4 974.7
15 20.08 ЮЗ 2
{5}
н/о н/о +11.4 +10.0 91 +10 +10 1013.0 975.3
17 20.08 ЮЗ 2 н/о н/о +10.6 +9.5 93 +9 +9 1014.5 976.6
18 20.08 З 2
{7}
н/о н/о +10.2 +9.4 95 +9 +9 1015.1 977.2 +10.2 +12.1
19 20.08 ЮЗ 1
{4}
н/о н/о +9.9 +9.3 96 +9 +9 1015.8 977.7

 

Местоположение метеостанции Флурё аэропорт (Норвегия): широта 61.39 долгота 5.76 высота над уровнем моря 321 м.

В архиве по умолчанию представлена погода во Флурё аэропорту за последнюю неделю. Архивные данные за месяц целиком и за предыдущие месяцы, начиная с января 2011 года, Вы можете получить, выбрав интересующий диапазон дат из раскрывающегося списка и нажав кнопку "Ввод!".


*Определитесь, кто Вы:
робот инопланетянин человек

Внимание! Время в таблицах - всемирное. Для получения местного времени необходимо прибавить поправку, которая равна 1 ч.

Смотрите также архив погоды в соседних городах и на ближайших метеорологических станциях:

Погода во Флурё (Норвегия) (12 км)
Погода в Фурунесете (Норвегия) (40 км)
Погода в Флоро аэропорту (Норвегия) (44 км)
Погода в Такле (Норвегия) (45 км)
Погода в Сандан аэропорту (Норвегия) (52 км)
Погода в Вангснесе (Норвегия) (53 км)
Погода во Фьерлэнде (Норвегия) (54 км)
Погода в Модалене (Норвегия) (60 км)
Погода на Маяке Ytteroyane (Норвегия) (61 км)
Погода в Стрын-Крокене (Норвегия) (73 км)

Пояснения к столбцам:

Ветер - указаны скорость ветра в м/с - средняя за 10 мин, порывы в срок и между сроками (в фигурных скобках) и направление, откуда дует ветер: С - северный, СВ - северо-восточный, В - восточный, ЮВ - юго-восточный, Ю - южный, ЮЗ - юго-западный, З - западный, СЗ - северо-западный.
Видимость - горизонтальная дальность видимости в метрах или километрах. При видимости от 1 до 10 км при отсутствии осадков обычно наблюдается дымка, при ухудшении видимости до 1 км и менее - туман. В сухую погоду видимость может ухудшаться дымом, пылью или мглою.
Явления - указаны атмосферные явления, наблюдавшиеся в срок или в последний час перед сроком; фигурными скобками обозначены явления, наблюдавшиеся между сроками (за 1-3 часа до срока); квадратными скобками обозначены град или гололедные отложения с указанием их диаметра в мм.
Облачность - указаны через наклонную черту общая и нижняя облачность в баллах и высота нижней границы облаков в метрах; квадратными скобками обозначены формы облаков: Ci - перистые, Cs - перисто-слоистые, Cc - перисто-кучевые, Ac - высококучевые, As - высокослоистые, Sc - слоисто-кучевые, Ns - слоисто-дождевые, Cu - кучевые, Cb - кучево-дождевые. Подробнее классификацию облаков см. в Атласе облаков (PDF).
T - Температура воздуха - температура, измеренная на высоте 2 м над землей.
Td - Температура точки росы - температура, при понижении до которой содержащийся в воздухе водяной пар достигнет насыщения.
f - Относительная влажность воздуха - влажноcть воздуха, измеренная на высоте 2 м над землей.
Te - Эффективная температура - температура, которую ощущает одетый по сезону человек в тени. Характеристика душности погоды. При расчете учитывается влияние влажности воздуха и скорости ветра на теплоощущения человека.
Tes - Эффективная температура на солнце - температура, которую ощущает человек, с поправкой на солнечный нагрев. Характеристика знойности погоды. Зависит от высоты солнца над горизонтом, облачности и скорости ветра. Ночью, в пасмурную погоду, а также при ветре 12 м/с и более поправка равна нулю.
P - Атмосферное давление - приведенное к уровню моря атмосферное давление.
Po - Атмосферное давление - измеренное на уровне метеостанции атмосферное давление.
Tmin - Минимальная температура - минимум температуры воздуха на высоте 2 м над землей.
Tmax - Максимальная температура - максимум температуры воздуха на высоте 2 м над землей.
R - Количество осадков - Количество выпавших осадков за период времени, мм. При наведении курсора мыши на число - период времени, за который выпало указанное количество осадков.
R24 - Количество осадков - Количество выпавших осадков за 24 часа, мм.
S - Снежный покров - Высота снежного покрова, см. При наведении курсора мыши на число - состояние снежного покрова и степень покрытия местности в баллах.